Year,Month,Day,Hour,Minute,Value (Times are PST for temperature in C)
2015,07,24,00,00,18.10
2015,07,24,00,01,18.00
2015,07,24,00,02,18.00
2015,07,24,00,03,18.00
2015,07,24,00,04,17.90
2015,07,24,00,05,17.90
2015,07,24,00,06,17.90
2015,07,24,00,07,17.90
2015,07,24,00,08,17.80
2015,07,24,00,09,17.80
2015,07,24,00,10,17.80
2015,07,24,00,11,17.80
2015,07,24,00,12,17.80
2015,07,24,00,13,17.80
2015,07,24,00,14,17.80
2015,07,24,00,15,17.80
2015,07,24,00,16,17.70
2015,07,24,00,17,17.70
2015,07,24,00,18,17.70
2015,07,24,00,19,17.70
2015,07,24,00,20,17.70
2015,07,24,00,21,17.70
2015,07,24,00,22,17.70
2015,07,24,00,23,17.70
2015,07,24,00,24,17.70
2015,07,24,00,25,17.70
2015,07,24,00,26,17.70
2015,07,24,00,27,17.70
2015,07,24,00,28,17.70
2015,07,24,00,29,17.70
2015,07,24,00,30,17.70
2015,07,24,00,31,17.70
2015,07,24,00,32,17.70
2015,07,24,00,33,17.70
2015,07,24,00,34,17.70
2015,07,24,00,35,17.70
2015,07,24,00,36,17.70
2015,07,24,00,37,17.80
2015,07,24,00,38,17.80
2015,07,24,00,39,17.80
2015,07,24,00,40,17.80
2015,07,24,00,41,17.80
2015,07,24,00,42,17.80
2015,07,24,00,43,17.80
2015,07,24,00,44,17.80
2015,07,24,00,45,17.80
2015,07,24,00,46,17.80
2015,07,24,00,47,17.80
2015,07,24,00,48,17.80
2015,07,24,00,49,17.80
2015,07,24,00,50,17.80
2015,07,24,00,51,17.80
2015,07,24,00,52,17.80
2015,07,24,00,53,17.80
2015,07,24,00,54,17.80
2015,07,24,00,55,17.80
2015,07,24,00,56,17.80
2015,07,24,00,57,17.80
2015,07,24,00,58,17.80
2015,07,24,00,59,17.80
2015,07,24,01,00,17.80
2015,07,24,01,01,17.80
2015,07,24,01,02,17.80
2015,07,24,01,03,17.80
2015,07,24,01,04,17.80
2015,07,24,01,05,17.80
2015,07,24,01,06,17.70
2015,07,24,01,07,17.70
2015,07,24,01,08,17.70
2015,07,24,01,09,17.70
2015,07,24,01,10,17.70
2015,07,24,01,11,17.70
2015,07,24,01,12,17.70
2015,07,24,01,13,17.60
2015,07,24,01,14,17.60
2015,07,24,01,15,17.60
2015,07,24,01,16,17.60
2015,07,24,01,17,17.60
2015,07,24,01,18,17.60
2015,07,24,01,19,17.60
2015,07,24,01,20,17.60
2015,07,24,01,21,17.60
2015,07,24,01,22,17.60
2015,07,24,01,23,17.60
2015,07,24,01,24,17.60
2015,07,24,01,25,17.60
2015,07,24,01,26,17.60
2015,07,24,01,27,17.60
2015,07,24,01,28,17.60
2015,07,24,01,29,17.60
2015,07,24,01,30,17.50
2015,07,24,01,31,17.50
2015,07,24,01,32,17.50
2015,07,24,01,33,17.50
2015,07,24,01,34,17.40
2015,07,24,01,35,17.40
2015,07,24,01,36,17.40
2015,07,24,01,37,17.40
2015,07,24,01,38,17.40
2015,07,24,01,39,17.40
2015,07,24,01,40,17.40
2015,07,24,01,41,17.40
2015,07,24,01,42,17.40
2015,07,24,01,43,17.40
2015,07,24,01,44,17.40
2015,07,24,01,45,17.30
2015,07,24,01,46,17.30
2015,07,24,01,47,17.30
2015,07,24,01,48,17.30
2015,07,24,01,49,17.30
2015,07,24,01,50,17.30
2015,07,24,01,51,17.30
2015,07,24,01,52,17.30
2015,07,24,01,53,17.30
2015,07,24,01,54,17.30
2015,07,24,01,55,17.20
2015,07,24,01,56,17.20
2015,07,24,01,57,17.20
2015,07,24,01,58,17.20
2015,07,24,01,59,17.20
2015,07,24,02,00,17.20
2015,07,24,02,01,17.20
2015,07,24,02,02,17.20
2015,07,24,02,03,17.20
2015,07,24,02,04,17.20
2015,07,24,02,05,17.10
2015,07,24,02,06,17.10
2015,07,24,02,07,17.10
2015,07,24,02,08,17.10
2015,07,24,02,09,17.10
2015,07,24,02,10,17.10
2015,07,24,02,11,17.10
2015,07,24,02,12,17.10
2015,07,24,02,13,17.10
2015,07,24,02,14,17.00
2015,07,24,02,15,17.00
2015,07,24,02,16,17.00
2015,07,24,02,17,17.00
2015,07,24,02,18,17.00
2015,07,24,02,19,16.90
2015,07,24,02,20,16.90
2015,07,24,02,21,16.90
2015,07,24,02,22,17.00
2015,07,24,02,23,17.00
2015,07,24,02,24,17.00
2015,07,24,02,25,17.00
2015,07,24,02,26,17.00
2015,07,24,02,27,17.00
2015,07,24,02,28,17.00
2015,07,24,02,29,17.00
2015,07,24,02,30,17.00
2015,07,24,02,31,17.00
2015,07,24,02,32,16.90
2015,07,24,02,33,16.90
2015,07,24,02,34,16.90
2015,07,24,02,35,16.90
2015,07,24,02,36,16.90
2015,07,24,02,37,16.90
2015,07,24,02,38,16.90
2015,07,24,02,39,16.90
2015,07,24,02,40,16.90
2015,07,24,02,41,16.80
2015,07,24,02,42,16.80
2015,07,24,02,43,16.80
2015,07,24,02,44,16.80
2015,07,24,02,45,16.80
2015,07,24,02,46,16.80
2015,07,24,02,47,16.80
2015,07,24,02,48,16.80
2015,07,24,02,49,16.80
2015,07,24,02,50,16.80
2015,07,24,02,51,16.80
2015,07,24,02,52,16.80
2015,07,24,02,53,16.80
2015,07,24,02,54,16.80
2015,07,24,02,55,16.80
2015,07,24,02,56,16.80
2015,07,24,02,57,16.90
2015,07,24,02,58,16.90
2015,07,24,02,59,16.90
2015,07,24,03,00,16.90
2015,07,24,03,01,16.90
2015,07,24,03,02,16.90
2015,07,24,03,03,16.90
2015,07,24,03,04,16.90
2015,07,24,03,05,16.90
2015,07,24,03,06,16.90
2015,07,24,03,07,16.90
2015,07,24,03,08,16.80
2015,07,24,03,09,16.80
2015,07,24,03,10,16.80
2015,07,24,03,11,16.80
2015,07,24,03,12,16.80
2015,07,24,03,13,16.80
2015,07,24,03,14,16.80
2015,07,24,03,15,16.80
2015,07,24,03,16,16.80
2015,07,24,03,17,16.80
2015,07,24,03,18,16.80
2015,07,24,03,19,16.80
2015,07,24,03,20,16.80
2015,07,24,03,21,16.80
2015,07,24,03,22,16.70
2015,07,24,03,23,16.70
2015,07,24,03,24,16.70
2015,07,24,03,25,16.70
2015,07,24,03,26,16.70
2015,07,24,03,27,16.70
2015,07,24,03,28,16.70
2015,07,24,03,29,16.70
2015,07,24,03,30,16.70
2015,07,24,03,31,16.70
2015,07,24,03,32,16.70
2015,07,24,03,33,16.60
2015,07,24,03,34,16.60
2015,07,24,03,35,16.60
2015,07,24,03,36,16.60
2015,07,24,03,37,16.60
2015,07,24,03,38,16.60
2015,07,24,03,39,16.60
2015,07,24,03,40,16.60
2015,07,24,03,41,16.50
2015,07,24,03,42,16.50
2015,07,24,03,43,16.50
2015,07,24,03,44,16.50
2015,07,24,03,45,16.50
2015,07,24,03,46,16.50
2015,07,24,03,47,16.50
2015,07,24,03,48,16.40
2015,07,24,03,49,16.40
2015,07,24,03,50,16.40
2015,07,24,03,51,16.40
2015,07,24,03,52,16.40
2015,07,24,03,53,16.40
2015,07,24,03,54,16.40
2015,07,24,03,55,16.40
2015,07,24,03,56,16.40
2015,07,24,03,57,16.40
2015,07,24,03,58,16.40
2015,07,24,03,59,16.40
2015,07,24,04,00,16.40
2015,07,24,04,01,16.40
2015,07,24,04,02,16.40
2015,07,24,04,03,16.30
2015,07,24,04,04,16.30
2015,07,24,04,05,16.30
2015,07,24,04,06,16.20
2015,07,24,04,07,16.20
2015,07,24,04,08,16.10
2015,07,24,04,09,16.10
2015,07,24,04,10,16.00
2015,07,24,04,11,15.90
2015,07,24,04,12,15.80
2015,07,24,04,13,15.80
2015,07,24,04,14,15.70
2015,07,24,04,15,15.70
2015,07,24,04,16,15.60
2015,07,24,04,17,15.50
2015,07,24,04,18,15.50
2015,07,24,04,19,15.40
2015,07,24,04,20,15.40
2015,07,24,04,21,15.40
2015,07,24,04,22,15.30
2015,07,24,04,23,15.30
2015,07,24,04,24,15.20
2015,07,24,04,25,15.20
2015,07,24,04,26,15.20
2015,07,24,04,27,15.20
2015,07,24,04,28,15.10
2015,07,24,04,29,15.10
2015,07,24,04,30,15.10
2015,07,24,04,31,15.00
2015,07,24,04,32,15.00
2015,07,24,04,33,15.00
2015,07,24,04,34,14.90
2015,07,24,04,35,14.90
2015,07,24,04,36,14.90
2015,07,24,04,37,14.90
2015,07,24,04,38,14.90
2015,07,24,04,39,14.90
2015,07,24,04,40,14.90
2015,07,24,04,41,14.90
2015,07,24,04,42,14.90
2015,07,24,04,43,14.90
2015,07,24,04,44,14.90
2015,07,24,04,45,14.90
2015,07,24,04,46,14.90
2015,07,24,04,47,14.90
2015,07,24,04,48,14.90
2015,07,24,04,49,14.90
2015,07,24,04,50,14.90
2015,07,24,04,51,14.90
2015,07,24,04,52,14.90
2015,07,24,04,53,14.90
2015,07,24,04,54,14.90
2015,07,24,04,55,14.90
2015,07,24,04,56,14.90
2015,07,24,04,57,14.90
2015,07,24,04,58,14.90
2015,07,24,04,59,14.90
2015,07,24,05,00,14.90
2015,07,24,05,01,14.90
2015,07,24,05,02,14.90
2015,07,24,05,03,14.90
2015,07,24,05,04,14.90
2015,07,24,05,05,15.00
2015,07,24,05,06,14.90
2015,07,24,05,07,14.90
2015,07,24,05,08,14.90
2015,07,24,05,09,14.90
2015,07,24,05,10,14.90
2015,07,24,05,11,14.90
2015,07,24,05,12,14.90
2015,07,24,05,13,14.90
2015,07,24,05,14,14.90
2015,07,24,05,15,14.90
2015,07,24,05,16,14.90
2015,07,24,05,17,14.90
2015,07,24,05,18,14.90
2015,07,24,05,19,14.90
2015,07,24,05,20,14.90
2015,07,24,05,21,14.90
2015,07,24,05,22,14.90
2015,07,24,05,23,14.90
2015,07,24,05,24,14.90
2015,07,24,05,25,14.80
2015,07,24,05,26,14.80
2015,07,24,05,27,14.80
2015,07,24,05,28,14.80
2015,07,24,05,29,14.80
2015,07,24,05,30,14.80
2015,07,24,05,31,14.90
2015,07,24,05,32,14.90
2015,07,24,05,33,14.90
2015,07,24,05,34,14.90
2015,07,24,05,35,14.90
2015,07,24,05,36,15.00
2015,07,24,05,37,15.00
2015,07,24,05,38,15.00
2015,07,24,05,39,15.10
2015,07,24,05,40,15.10
2015,07,24,05,41,15.10
2015,07,24,05,42,15.10
2015,07,24,05,43,15.10
2015,07,24,05,44,15.10
2015,07,24,05,45,15.10
2015,07,24,05,46,15.10
2015,07,24,05,47,15.10
2015,07,24,05,48,15.10
2015,07,24,05,49,15.10
2015,07,24,05,50,15.10
2015,07,24,05,51,15.10
2015,07,24,05,52,15.10
2015,07,24,05,53,15.10
2015,07,24,05,54,15.10
2015,07,24,05,55,15.10
2015,07,24,05,56,15.10
2015,07,24,05,57,15.10
2015,07,24,05,58,15.10
2015,07,24,05,59,15.10
2015,07,24,06,00,15.20
2015,07,24,06,01,15.20
2015,07,24,06,02,15.20
2015,07,24,06,03,15.20
2015,07,24,06,04,15.20
2015,07,24,06,05,15.20
2015,07,24,06,06,15.20
2015,07,24,06,07,15.30
2015,07,24,06,08,15.30
2015,07,24,06,09,15.30
2015,07,24,06,10,15.30
2015,07,24,06,11,15.30
2015,07,24,06,12,15.30
2015,07,24,06,13,15.30
2015,07,24,06,14,15.30
2015,07,24,06,15,15.30
2015,07,24,06,16,15.30
2015,07,24,06,17,15.30
2015,07,24,06,18,15.30
2015,07,24,06,19,15.20
2015,07,24,06,20,15.20
2015,07,24,06,21,15.20
2015,07,24,06,22,15.20
2015,07,24,06,23,15.30
2015,07,24,06,24,15.20
2015,07,24,06,25,15.30
2015,07,24,06,26,15.30
2015,07,24,06,27,15.30
2015,07,24,06,28,15.30
2015,07,24,06,29,15.30
2015,07,24,06,30,15.30
2015,07,24,06,31,15.30
2015,07,24,06,32,15.30
2015,07,24,06,33,15.30
2015,07,24,06,34,15.30
2015,07,24,06,35,15.30
2015,07,24,06,36,15.40
2015,07,24,06,37,15.40
2015,07,24,06,38,15.40
2015,07,24,06,39,15.40
2015,07,24,06,40,15.40
2015,07,24,06,41,15.40
2015,07,24,06,42,15.40
2015,07,24,06,43,15.40
2015,07,24,06,44,15.40
2015,07,24,06,45,15.40
2015,07,24,06,46,15.40
2015,07,24,06,47,15.40
2015,07,24,06,48,15.40
2015,07,24,06,49,15.40
2015,07,24,06,50,15.40
2015,07,24,06,51,15.40
2015,07,24,06,52,15.40
2015,07,24,06,53,15.40
2015,07,24,06,54,15.40
2015,07,24,06,55,15.40
2015,07,24,06,56,15.40
2015,07,24,06,57,15.40
2015,07,24,06,58,15.40
2015,07,24,06,59,15.40
2015,07,24,07,00,15.50
2015,07,24,07,01,15.40
2015,07,24,07,02,15.40
2015,07,24,07,03,15.40
2015,07,24,07,04,15.40
2015,07,24,07,05,15.40
2015,07,24,07,06,15.40
2015,07,24,07,07,15.40
2015,07,24,07,08,15.40
2015,07,24,07,09,15.30
2015,07,24,07,10,15.30
2015,07,24,07,11,15.20
2015,07,24,07,12,15.20
2015,07,24,07,13,15.10
2015,07,24,07,14,15.10
2015,07,24,07,15,15.00
2015,07,24,07,16,15.00
2015,07,24,07,17,14.90
2015,07,24,07,18,14.90
2015,07,24,07,19,14.80
2015,07,24,07,20,14.80
2015,07,24,07,21,14.70
2015,07,24,07,22,14.70
2015,07,24,07,23,14.70
2015,07,24,07,24,14.60
2015,07,24,07,25,14.60
2015,07,24,07,26,14.60
2015,07,24,07,27,14.50
2015,07,24,07,28,14.50
2015,07,24,07,29,14.50
2015,07,24,07,30,14.40
2015,07,24,07,31,14.40
2015,07,24,07,32,14.40
2015,07,24,07,33,14.40
2015,07,24,07,34,14.40
2015,07,24,07,35,14.40
2015,07,24,07,36,14.40
2015,07,24,07,37,14.30
2015,07,24,07,38,14.30
2015,07,24,07,39,14.30
2015,07,24,07,40,14.30
2015,07,24,07,41,14.30
2015,07,24,07,42,14.20
2015,07,24,07,43,14.20
2015,07,24,07,44,14.20
2015,07,24,07,45,14.20
2015,07,24,07,46,14.20
2015,07,24,07,47,14.20
2015,07,24,07,48,14.20
2015,07,24,07,49,14.20
2015,07,24,07,50,14.20
2015,07,24,07,51,14.30
2015,07,24,07,52,14.30
2015,07,24,07,53,14.30
2015,07,24,07,54,14.40
2015,07,24,07,55,14.40
2015,07,24,07,56,14.40
2015,07,24,07,57,14.50
2015,07,24,07,58,14.50
2015,07,24,07,59,14.60
2015,07,24,08,00,14.60
2015,07,24,08,01,14.60
2015,07,24,08,02,14.60
2015,07,24,08,03,14.60
2015,07,24,08,04,14.70
2015,07,24,08,05,14.70
2015,07,24,08,06,14.70
2015,07,24,08,07,14.70
2015,07,24,08,08,14.70
2015,07,24,08,09,14.70
2015,07,24,08,10,14.70
2015,07,24,08,11,14.70
2015,07,24,08,12,14.80
2015,07,24,08,13,14.80
2015,07,24,08,14,14.80
2015,07,24,08,15,14.80
2015,07,24,08,16,14.80
2015,07,24,08,17,14.80
2015,07,24,08,18,14.80
2015,07,24,08,19,14.80
2015,07,24,08,20,14.80
2015,07,24,08,21,14.80
2015,07,24,08,22,14.80
2015,07,24,08,23,14.80
2015,07,24,08,24,14.80
2015,07,24,08,25,14.80
2015,07,24,08,26,14.80
2015,07,24,08,27,14.80
2015,07,24,08,28,14.80
2015,07,24,08,29,14.80
2015,07,24,08,30,14.70
2015,07,24,08,31,14.70
2015,07,24,08,32,14.70
2015,07,24,08,33,14.70
2015,07,24,08,34,14.70
2015,07,24,08,35,14.70
2015,07,24,08,36,14.80
2015,07,24,08,37,14.80
2015,07,24,08,38,14.80
2015,07,24,08,39,14.80
2015,07,24,08,40,14.80
2015,07,24,08,41,14.80
2015,07,24,08,42,14.80
2015,07,24,08,43,14.80
2015,07,24,08,44,14.80
2015,07,24,08,45,14.80
2015,07,24,08,46,14.80
2015,07,24,08,47,14.80
2015,07,24,08,48,14.80
2015,07,24,08,49,14.80
2015,07,24,08,50,14.80
2015,07,24,08,51,14.80
2015,07,24,08,52,14.70
2015,07,24,08,53,14.70
2015,07,24,08,54,14.70
2015,07,24,08,55,14.70
2015,07,24,08,56,14.70
2015,07,24,08,57,14.70
2015,07,24,08,58,14.70
2015,07,24,08,59,14.70
2015,07,24,09,00,14.70
2015,07,24,09,01,14.70
2015,07,24,09,02,14.60
2015,07,24,09,03,14.60
2015,07,24,09,04,14.60
2015,07,24,09,05,14.60
2015,07,24,09,06,14.60
2015,07,24,09,07,14.60
2015,07,24,09,08,14.60
2015,07,24,09,09,14.60
2015,07,24,09,10,14.60
2015,07,24,09,11,14.60
2015,07,24,09,12,14.60
2015,07,24,09,13,14.60
2015,07,24,09,14,14.70
2015,07,24,09,15,14.70
2015,07,24,09,16,14.70
2015,07,24,09,17,14.70
2015,07,24,09,18,14.70
2015,07,24,09,19,14.70
2015,07,24,09,20,14.70
2015,07,24,09,21,14.70
2015,07,24,09,22,14.70
2015,07,24,09,23,14.70
2015,07,24,09,24,14.70
2015,07,24,09,25,14.70
2015,07,24,09,26,14.70
2015,07,24,09,27,14.70
2015,07,24,09,28,14.70
2015,07,24,09,29,14.60
2015,07,24,09,30,14.60
2015,07,24,09,31,14.60
2015,07,24,09,32,14.60
2015,07,24,09,33,14.60
2015,07,24,09,34,14.60
2015,07,24,09,35,14.60
2015,07,24,09,36,14.60
2015,07,24,09,37,14.60
2015,07,24,09,38,14.60
2015,07,24,09,39,14.60
2015,07,24,09,40,14.60
2015,07,24,09,41,14.60
2015,07,24,09,42,14.60
2015,07,24,09,43,14.60
2015,07,24,09,44,14.60
2015,07,24,09,45,14.60
2015,07,24,09,46,14.70
2015,07,24,09,47,14.70
2015,07,24,09,48,14.70
2015,07,24,09,49,14.70
2015,07,24,09,50,14.70
2015,07,24,09,51,14.70
2015,07,24,09,52,14.60
2015,07,24,09,53,14.60
2015,07,24,09,54,14.60
2015,07,24,09,55,14.60
2015,07,24,09,56,14.60
2015,07,24,09,57,14.60
2015,07,24,09,58,14.60
2015,07,24,09,59,14.60
2015,07,24,10,00,14.60
2015,07,24,10,01,14.60
2015,07,24,10,02,14.60
2015,07,24,10,03,14.70
2015,07,24,10,04,14.70
2015,07,24,10,05,14.70
2015,07,24,10,06,14.70
2015,07,24,10,07,14.70
2015,07,24,10,08,14.80
2015,07,24,10,09,14.80
2015,07,24,10,10,14.80
2015,07,24,10,11,14.80
2015,07,24,10,12,14.80
2015,07,24,10,13,14.80
2015,07,24,10,14,14.80
2015,07,24,10,15,14.80
2015,07,24,10,16,14.80
2015,07,24,10,17,14.70
2015,07,24,10,18,14.80
2015,07,24,10,19,14.80
2015,07,24,10,20,14.70
2015,07,24,10,21,14.70
2015,07,24,10,22,14.70
2015,07,24,10,23,14.80
2015,07,24,10,24,14.80
2015,07,24,10,25,14.80
2015,07,24,10,26,14.80
2015,07,24,10,27,14.70
2015,07,24,10,28,14.70
2015,07,24,10,29,14.70
2015,07,24,10,30,14.70
2015,07,24,10,31,14.70
2015,07,24,10,32,14.70
2015,07,24,10,33,14.70
2015,07,24,10,34,14.70
2015,07,24,10,35,14.60
2015,07,24,10,36,14.60
2015,07,24,10,37,14.60
2015,07,24,10,38,14.60
2015,07,24,10,39,14.60
2015,07,24,10,40,14.60
2015,07,24,10,41,14.60
2015,07,24,10,42,14.60
2015,07,24,10,43,14.60
2015,07,24,10,44,14.60
2015,07,24,10,45,14.60
2015,07,24,10,46,14.60
2015,07,24,10,47,14.60
2015,07,24,10,48,14.60
2015,07,24,10,49,14.60
2015,07,24,10,50,14.60
2015,07,24,10,51,14.60
2015,07,24,10,52,14.60
2015,07,24,10,53,14.60
2015,07,24,10,54,14.60
2015,07,24,10,55,14.60
2015,07,24,10,56,14.50
2015,07,24,10,57,14.40
2015,07,24,10,58,14.40
2015,07,24,10,59,14.40
2015,07,24,11,00,14.30
2015,07,24,11,01,14.30
2015,07,24,11,02,14.30
2015,07,24,11,03,14.30
2015,07,24,11,04,14.20
2015,07,24,11,05,14.30
2015,07,24,11,06,14.30
2015,07,24,11,07,14.30
2015,07,24,11,08,14.30
2015,07,24,11,09,14.30
2015,07,24,11,10,14.30
2015,07,24,11,11,14.30
2015,07,24,11,12,14.30
2015,07,24,11,13,14.30
2015,07,24,11,14,14.30
2015,07,24,11,15,14.30
2015,07,24,11,16,14.40
2015,07,24,11,17,14.40
2015,07,24,11,18,14.40
2015,07,24,11,19,14.40
2015,07,24,11,20,14.40
2015,07,24,11,21,14.40
2015,07,24,11,22,14.40
2015,07,24,11,23,14.50
2015,07,24,11,24,14.50
2015,07,24,11,25,14.60
2015,07,24,11,26,14.60
2015,07,24,11,27,14.60
2015,07,24,11,28,14.60
2015,07,24,11,29,14.70
2015,07,24,11,30,14.70
2015,07,24,11,31,14.70
2015,07,24,11,32,14.60
2015,07,24,11,33,14.60
2015,07,24,11,34,14.50
2015,07,24,11,35,14.40
2015,07,24,11,36,14.40
2015,07,24,11,37,14.40
2015,07,24,11,38,14.30
2015,07,24,11,39,14.30
2015,07,24,11,40,14.30
2015,07,24,11,41,14.30
2015,07,24,11,42,14.30
2015,07,24,11,43,14.20
2015,07,24,11,44,14.20
2015,07,24,11,45,14.20
2015,07,24,11,46,14.20
2015,07,24,11,47,14.10
2015,07,24,11,48,14.10
2015,07,24,11,49,14.10
2015,07,24,11,50,14.00
2015,07,24,11,51,14.00
2015,07,24,11,52,14.00
2015,07,24,11,53,14.00
2015,07,24,11,54,14.00
2015,07,24,11,55,14.00
2015,07,24,11,56,14.00
2015,07,24,11,57,14.00
2015,07,24,11,58,14.00
2015,07,24,11,59,14.00
2015,07,24,12,00,14.00
2015,07,24,12,01,14.10
2015,07,24,12,02,14.10
2015,07,24,12,03,14.10
2015,07,24,12,04,14.10
2015,07,24,12,05,14.10
2015,07,24,12,06,14.20
2015,07,24,12,07,14.20
2015,07,24,12,08,14.20
2015,07,24,12,09,14.20
2015,07,24,12,10,14.20
2015,07,24,12,11,14.20
2015,07,24,12,12,14.20
2015,07,24,12,13,14.20
2015,07,24,12,14,14.20
2015,07,24,12,15,14.20
2015,07,24,12,16,14.20
2015,07,24,12,17,14.20
2015,07,24,12,18,14.20
2015,07,24,12,19,14.20
2015,07,24,12,20,14.30
2015,07,24,12,21,14.30
2015,07,24,12,22,14.30
2015,07,24,12,23,14.30
2015,07,24,12,24,14.30
2015,07,24,12,25,14.30
2015,07,24,12,26,14.20
2015,07,24,12,27,14.20
2015,07,24,12,28,14.10
2015,07,24,12,29,14.10
2015,07,24,12,30,14.10
2015,07,24,12,31,14.10
2015,07,24,12,32,14.10
2015,07,24,12,33,14.10
2015,07,24,12,34,14.00
2015,07,24,12,35,13.90
2015,07,24,12,36,14.00
2015,07,24,12,37,14.00
2015,07,24,12,38,14.00
2015,07,24,12,39,14.10
2015,07,24,12,40,14.10
2015,07,24,12,41,14.10
2015,07,24,12,42,14.10
2015,07,24,12,43,14.10
2015,07,24,12,44,14.10
2015,07,24,12,45,14.10
2015,07,24,12,46,14.10
2015,07,24,12,47,14.20
2015,07,24,12,48,14.20
2015,07,24,12,49,14.20
2015,07,24,12,50,14.20
2015,07,24,12,51,14.20
2015,07,24,12,52,14.20
2015,07,24,12,53,14.20
2015,07,24,12,54,14.30
2015,07,24,12,55,14.30
2015,07,24,12,56,14.30
2015,07,24,12,57,14.30
2015,07,24,12,58,14.40
2015,07,24,12,59,14.40
2015,07,24,13,00,14.40
2015,07,24,13,01,14.40
2015,07,24,13,02,14.40
2015,07,24,13,03,14.50
2015,07,24,13,04,14.50
2015,07,24,13,05,14.50
2015,07,24,13,06,14.50
2015,07,24,13,07,14.50
2015,07,24,13,08,14.50
2015,07,24,13,09,14.60
2015,07,24,13,10,14.60
2015,07,24,13,11,14.60
2015,07,24,13,12,14.60
2015,07,24,13,13,14.60
2015,07,24,13,14,14.60
2015,07,24,13,15,14.60
2015,07,24,13,16,14.70
2015,07,24,13,17,14.70
2015,07,24,13,18,14.70
2015,07,24,13,19,14.70
2015,07,24,13,20,14.70
2015,07,24,13,21,14.70
2015,07,24,13,22,14.70
2015,07,24,13,23,14.70
2015,07,24,13,24,14.80
2015,07,24,13,25,14.80
2015,07,24,13,26,14.80
2015,07,24,13,27,14.70
2015,07,24,13,28,14.70
2015,07,24,13,29,14.70
2015,07,24,13,30,14.70
2015,07,24,13,31,14.70
2015,07,24,13,32,14.70
2015,07,24,13,33,14.70
2015,07,24,13,34,14.70
2015,07,24,13,35,14.70
2015,07,24,13,36,14.80
2015,07,24,13,37,14.80
2015,07,24,13,38,14.80
2015,07,24,13,39,14.80
2015,07,24,13,40,14.80
2015,07,24,13,41,14.80
2015,07,24,13,42,14.80
2015,07,24,13,43,14.90
2015,07,24,13,44,14.90
2015,07,24,13,45,14.90
2015,07,24,13,46,14.90
2015,07,24,13,47,14.90
2015,07,24,13,48,14.90
2015,07,24,13,49,14.80
2015,07,24,13,50,14.80
2015,07,24,13,51,14.80
2015,07,24,13,52,14.70
2015,07,24,13,53,14.70
2015,07,24,13,54,14.70
2015,07,24,13,55,14.70
2015,07,24,13,56,14.80
2015,07,24,13,57,14.80
2015,07,24,13,58,14.90
2015,07,24,13,59,14.90
2015,07,24,14,00,15.00
2015,07,24,14,01,15.00
2015,07,24,14,02,14.90
2015,07,24,14,03,14.90
2015,07,24,14,04,15.00
2015,07,24,14,05,15.00
2015,07,24,14,06,15.00
2015,07,24,14,07,14.90
2015,07,24,14,08,14.90
2015,07,24,14,09,14.90
2015,07,24,14,10,14.90
2015,07,24,14,11,14.90
2015,07,24,14,12,14.90
2015,07,24,14,13,14.90
2015,07,24,14,14,15.00
2015,07,24,14,15,15.00
2015,07,24,14,16,15.00
2015,07,24,14,17,15.10
2015,07,24,14,18,15.10
2015,07,24,14,19,15.10
2015,07,24,14,20,15.10
2015,07,24,14,21,15.10
2015,07,24,14,22,15.10
2015,07,24,14,23,15.00
2015,07,24,14,24,14.90
2015,07,24,14,25,14.90
2015,07,24,14,26,15.00
2015,07,24,14,27,15.00
2015,07,24,14,28,15.00
2015,07,24,14,29,15.00
2015,07,24,14,30,15.00
2015,07,24,14,31,15.00
2015,07,24,14,32,15.00
2015,07,24,14,33,15.00
2015,07,24,14,34,15.10
2015,07,24,14,35,15.10
2015,07,24,14,36,15.10
2015,07,24,14,37,15.20
2015,07,24,14,38,15.20
2015,07,24,14,39,15.20
2015,07,24,14,40,15.30
2015,07,24,14,41,15.30
2015,07,24,14,42,15.30
2015,07,24,14,43,15.30
2015,07,24,14,44,15.30
2015,07,24,14,45,15.40
2015,07,24,14,46,15.40
2015,07,24,14,47,15.50
2015,07,24,14,48,15.50
2015,07,24,14,49,15.50
2015,07,24,14,50,15.60
2015,07,24,14,51,15.60
2015,07,24,14,52,15.60
2015,07,24,14,53,15.60
2015,07,24,14,54,15.60
2015,07,24,14,55,15.60
2015,07,24,14,56,15.60
2015,07,24,14,57,15.60
2015,07,24,14,58,15.60
2015,07,24,14,59,15.60
2015,07,24,15,00,15.70
2015,07,24,15,01,15.70
2015,07,24,15,02,15.80
2015,07,24,15,03,15.80
2015,07,24,15,04,15.90
2015,07,24,15,05,15.90
2015,07,24,15,06,15.90
2015,07,24,15,07,16.00
2015,07,24,15,08,16.00
2015,07,24,15,09,16.00
2015,07,24,15,10,16.00
2015,07,24,15,11,16.00
2015,07,24,15,12,16.00
2015,07,24,15,13,16.00
2015,07,24,15,14,16.00
2015,07,24,15,15,16.00
2015,07,24,15,16,16.00
2015,07,24,15,17,16.10
2015,07,24,15,18,16.10
2015,07,24,15,19,16.10
2015,07,24,15,20,16.10
2015,07,24,15,21,16.10
2015,07,24,15,22,16.10
2015,07,24,15,23,16.10
2015,07,24,15,24,16.10
2015,07,24,15,25,16.20
2015,07,24,15,26,16.20
2015,07,24,15,27,16.20
2015,07,24,15,28,16.20
2015,07,24,15,29,16.20
2015,07,24,15,30,16.20
2015,07,24,15,31,16.30
2015,07,24,15,32,16.20
2015,07,24,15,33,16.30
2015,07,24,15,34,16.30
2015,07,24,15,35,16.30
2015,07,24,15,36,16.30
2015,07,24,15,37,16.30
2015,07,24,15,38,16.30
2015,07,24,15,39,16.30
2015,07,24,15,40,16.30
2015,07,24,15,41,16.30
2015,07,24,15,42,16.30
2015,07,24,15,43,16.30
2015,07,24,15,44,16.30
2015,07,24,15,45,16.40
2015,07,24,15,46,16.30
2015,07,24,15,47,16.30
2015,07,24,15,48,16.40
2015,07,24,15,49,16.40
2015,07,24,15,50,16.40
2015,07,24,15,51,16.40
2015,07,24,15,52,16.50
2015,07,24,15,53,16.50
2015,07,24,15,54,16.50
2015,07,24,15,55,16.60
2015,07,24,15,56,16.60
2015,07,24,15,57,16.60
2015,07,24,15,58,16.60
2015,07,24,15,59,16.60
2015,07,24,16,00,16.60
2015,07,24,16,01,16.60
2015,07,24,16,02,16.60
2015,07,24,16,03,16.60
2015,07,24,16,04,16.60
2015,07,24,16,05,16.60
2015,07,24,16,06,16.60
2015,07,24,16,07,16.60
2015,07,24,16,08,16.60
2015,07,24,16,09,16.60
2015,07,24,16,10,16.60
2015,07,24,16,11,16.60
2015,07,24,16,12,16.50
2015,07,24,16,13,16.60
2015,07,24,16,14,16.60
2015,07,24,16,15,16.60
2015,07,24,16,16,16.60
2015,07,24,16,17,16.60
2015,07,24,16,18,16.60
2015,07,24,16,19,16.60
2015,07,24,16,20,16.70
2015,07,24,16,21,16.70
2015,07,24,16,22,16.70
2015,07,24,16,23,16.70
2015,07,24,16,24,16.70
2015,07,24,16,25,16.80
2015,07,24,16,26,16.80
2015,07,24,16,27,16.80
2015,07,24,16,28,16.80
2015,07,24,16,29,16.80
2015,07,24,16,30,16.80
2015,07,24,16,31,16.80
2015,07,24,16,32,16.80
2015,07,24,16,33,16.80
2015,07,24,16,34,16.80
2015,07,24,16,35,16.90
2015,07,24,16,36,16.90
2015,07,24,16,37,16.90
2015,07,24,16,38,16.90
2015,07,24,16,39,16.90
2015,07,24,16,40,16.90
2015,07,24,16,41,16.90
2015,07,24,16,42,16.90
2015,07,24,16,43,16.90
2015,07,24,16,44,16.80
2015,07,24,16,45,16.80
2015,07,24,16,46,16.80
2015,07,24,16,47,16.80
2015,07,24,16,48,16.80
2015,07,24,16,49,16.80
2015,07,24,16,50,16.80
2015,07,24,16,51,16.70
2015,07,24,16,52,16.70
2015,07,24,16,53,16.70
2015,07,24,16,54,16.70
2015,07,24,16,55,16.60
2015,07,24,16,56,16.50
2015,07,24,16,57,16.50
2015,07,24,16,58,16.40
2015,07,24,16,59,16.40
2015,07,24,17,00,16.30
2015,07,24,17,01,16.30
2015,07,24,17,02,16.30
2015,07,24,17,03,16.20
2015,07,24,17,04,16.20
2015,07,24,17,05,16.20
2015,07,24,17,06,16.20
2015,07,24,17,07,16.20
2015,07,24,17,08,16.20
2015,07,24,17,09,16.20
2015,07,24,17,10,16.20
2015,07,24,17,11,16.20
2015,07,24,17,12,16.20
2015,07,24,17,13,16.20
2015,07,24,17,14,16.30
2015,07,24,17,15,16.30
2015,07,24,17,16,16.30
2015,07,24,17,17,16.30
2015,07,24,17,18,16.30
2015,07,24,17,19,16.30